Vertical_Velocity
1 4 4 -7 5 -3 -2 2 0 1 -3 -1 -2 1 -5 0 1 12 2 8 2 2 -25 0 2 4 -3 6 6 -24 -7 -0 -2 5 4 -1 3 5 3 0 -2 -7 -3 -1 3 3 -9 -2 2 5 -5 -0 -0 -0
1 0 -4 -4 1 -4 0 -2 -1 -2 -0 3 5 -3 -7 -1 2 14 6 2 -0 14 -13 -3 -4 -6 -8 -5 20 -8 -7 0 -1 2 -3 -0 -1 1 -0 -1 -4 3 4 4 -2 -11 -5 -3 -1 -3 -1 -0 -1 -1
-1 0 -0 -3 4 -2 -1 1 -0 -4 1 2 4 6 -4 -4 -2 7 19 3 16 11 -19 10 -14 -5 1 -6 13 23 -5 -6 -2 7 2 -2 4 4 1 -6 3 -1 -1 -0 -1 -11 -2 0 3 -2 1 -2 -2 -3
0 1 -5 -2 2 -2 -1 -2 3 -4 -0 -2 6 -4 5 0 -6 2 3 40 6 0 3 -24 3 2 -3 -0 -2 -4 -16 10 8 8 2 1 5 4 -0 1 9 1 6 1 -6 -7 -2 -4 -2 1 -2 -3 2 3
1 2 -3 5 2 -1 -1 -3 2 -1 -2 1 6 1 -3 3 -0 -6 -2 4 21 1 3 -7 -5 -30 9 7 -0 12 7 11 5 3 2 -3 0 10 -3 6 -1 0 -1 6 -7 -3 11 -2 11 15 6 -2 -2 -7
1 -8 -3 -2 5 -0 -1 -1 -5 -4 -1 4 4 4 0 -1 6 -5 3 1 -0 1 5 -1 -2 -9 5 4 5 5 4 5 10 2 -3 -4 -13 12 3 -0 3 1 2 9 3 1 3 2 -3 2 6 4 4 -1
-4 -0 0 4 3 0 0 3 -5 -2 -3 2 4 2 1 -3 4 -3 -1 -3 -2 -4 -2 -2 -1 -2 2 -1 -3 -3 1 -2 3 -2 2 1 -0 7 1 3 -2 -1 1 -5 3 -1 -3 6 0 1 2 3 1 4
-1 -2 4 3 1 -0 1 -3 -4 -4 -2 -1 7 1 -4 1 3 5 9 12 11 -1 3 2 -6 2 -2 -1 -1 -3 0 2 4 -4 4 1 1 2 4 3 -2 -1 -4 1 -2 2 4 -1 2 4 13 0 2 3
-4 1 -0 -2 2 2 1 -4 -3 -2 -7 3 2 -7 -3 -5 -2 -4 -2 -2 12 -1 1 3 3 -1 -2 -1 -1 1 3 3 -3 0 1 5 1 0 6 4 1 -2 6 -3 -1 0 3 -1 1 3 11 17 -2 -7
3 -1 -3 -5 0 1 -3 -9 1 1 -6 -3 -4 -11 -5 -0 3 -4 -3 2 4 8 2 2 -2 1 -2 -1 -3 2 1 -0 2 8 -5 -4 3 6 2 3 5 -0 4 5 1 -2 -1 2 2 2 6 4 6 2
1 -1 -3 -1 0 -2 -8 -5 -1 2 -6 -4 -7 -4 -5 0 -4 -1 0 2 -1 1 -3 1 4 3 -7 4 -0 2 1 -0 0 7 -5 1 -1 1 -1 -0 -1 3 3 3 5 2 3 3 -1 -2 -1 -7 6 0
0 -1 -4 1 -2 -3 -3 -5 0 8 -2 1 1 -1 -3 -2 -2 -0 0 -3 -1 3 -6 1 1 2 -7 3 4 -1 1 -3 3 1 -5 -1 2 -1 -1 -2 -2 4 6 4 2 1 3 3 7 3 2 1 2 7
2 -2 -1 2 -5 0 -8 0 -0 7 3 -0 2 -1 -2 -2 -6 -2 -1 -4 -2 -2 2 -3 -7 1 -5 6 0 1 -3 4 -2 -4 3 4 1 -3 2 2 1 9 5 6 6 5 4 1 4 3 -2 2 -1 0
-2 0 1 0 -1 -2 -4 -3 -2 5 0 0 -2 -4 1 -1 0 1 3 3 -3 2 1 1 -0 3 4 -1 2 -1 6 -5 -2 -3 3 1 2 0 3 10 -4 2 5 4 3 4 3 1 0 4 1 4 -2 -1
-6 1 -1 2 -3 -5 -4 -3 1 4 1 -2 -0 -1 -1 2 -0 -0 -0 -1 -2 -1 0 -3 0 5 -1 -2 0 -2 -5 0 2 4 1 1 0 2 -0 2 3 -0 5 2 2 2 2 3 0 -1 1 1 2 2
-7 -1 -4 2 -1 -6 -4 -1 3 3 -3 -0 -2 -0 -2 1 -1 -3 -2 -1 3 -1 -0 2 0 -2 1 1 -4 2 -2 3 2 1 1 -1 1 1 3 3 7 3 -1 1 0 -1 -0 0 -2 -3 1 1 -1 -1
1 1 -2 1 -1 -6 -3 1 -1 3 -2 -1 1 -1 0 -0 2 3 0 1 0 1 1 0 -3 4 -0 -2 -1 1 2 3 2 -1 1 2 0 -0 2 3 3 3 1 1 3 2 1 2 3 3 -3 -1 -1 -1
-1 -1 -6 -1 -4 -12 -3 1 3 1 0 0 1 0 -0 -1 -0 -0 -1 -1 -0 -1 -0 2 -0 -4 1 0 1 2 -0 -1 3 2 0 0 1 1 2 -0 -1 -1 -1 0 1 1 -0 1 0 -1 1 1 0 0
1 -3 -3 2 -6 -3 6 2 -1 -1 0 1 1 -0 1 1 1 3 2 1 2 1 0 -2 -4 1 2 1 1 -1 -0 2 -0 -1 2 3 3 1 1 1 2 2 3 1 0 -1 1 2 1 0 -0 0 0 0
10 -4 4 0 -3 -0 1 -4 -3 -1 0 -1 -0 -1 1 0 -0 -1 0 -2 -2 -1 -6 -2 2 3 2 1 2 1 1 3 3 3 2 -1 0 1 2 3 2 2 1 1 -0 -1 0 1 1 -0 1 1 0 1
-7 -1 -1 -4 -4 1 -1 -1 -1 -1 -1 0 1 -0 1 -1 -3 -4 -1 1 -6 -0 0 1 1 0 1 1 1 2 3 2 2 7 2 1 -0 -0 -0 -1 -1 -0 -0 -0 -0 -0 -0 -1 -1 -2 0 1 0 0
-5 0 -2 -4 -2 -1 -3 -1 -0 -1 0 0 -0 -0 -1 -2 -1 -0 -0 -7 -1 1 0 0 1 1 1 0 0 1 1 1 1 1 1 1 -0 0 1 1 1 1 0 -0 0 -0 0 1 1 -0 -1 -1 -0 0
1 -2 -2 -1 0 -2 -1 -1 -1 -2 -0 -1 -1 -2 -1 -0 1 -0 -2 0 0 0 0 -0 0 0 0 0 1 1 0 0 1 1 1 1 1 0 -0 -0 -0 -0 0 0 0 -0 -1 -0 0 -1 -1 -1 -1 -1
-2 -5 -5 -6 -2 -1 0 -3 -1 -2 -0 -3 -1 -1 -1 -0 -2 -2 0 0 -1 -1 -1 -0 -1 -0 1 1 -1 -1 -1 -1 -0 0 0 0 -0 -0 -0 -1 -0 -1 -0 -1 -2 -2 -2 -2 -1 -0 1 1 2 2
-3 -6 -2 -3 -0 -5 -2 -2 -2 -4 0 0 -1 -1 -0 -2 -1 -1 1 1 -0 0 -1 -1 -1 -1 -1 -0 -0 -1 -1 -1 -1 -1 -0 -1 -1 -1 -1 -1 -1 -1 -0 0 1 1 2 2 2 1 0 -0 -1 -1
-7 -2 -2 2 -1 -2 1 -0 0 1 0 -1 0 -1 -1 0 -2 1 1 -1 -0 -0 -0 -0 -1 -1 2 2 0 1 1 1 1 0 0 1 0 0 0 0 0 -1 -0 -0 -0 -0 -0 -1 -1 -1 -0 -0 0 -0
-2 -1 -0 -1 -1 -0 0 -0 -0 0 -0 0 0 -2 -1 -1 0 1 0 0 0 1 1 1 1 1 0 0 1 1 1 1 1 1 1 1 0 0 0 0 1 1 1 1 1 1 0 0 -0 -0 -0 0 -1 -2
-1 -0 -1 0 -1 -1 0 -0 -0 -0 -0 -1 2 -0 -0 1 1 -0 -1 -0 -0 -0 -1 -1 0 0 -0 0 -0 -1 1 -0 0 -0 0 1 2 1 0 -0 -0 0 -1 0 0 -0 -0 -0 -1 -1 -1 0 1 1
1 -0 -1 -0 -0 0 -0 -0 -0 -1 -1 -0 1 -0 0 -1 -0 -1 -0 0 0 -0 0 0 1 0 1 1 0 -0 -1 -1 -2 -2 -1 -1 1 -0 1 1 0 0 -0 -0 2 1 2 -0 13 -2 -0 0 0 0
0 -1 0 -0 0 -0 0 -0 -1 -1 -1 0 0 -1 -1 -1 -1 0 0 -1 -2 -1 -1 -0 0 -0 -1 -3 -2 2 3 0 1 1 -0 0 0 1 0 -0 -0 0 -1 -1 -1 -0 2 -0 0 1 -0 -1 -1 -1
-0 -0 -0 -0 -0 -0 -0 -0 -0 0 1 1 0 -1 -0 -1 -0 -0 -1 -0 1 1 1 2 3 1 -1 -1 -1 -4 -2 2 3 3 1 -1 0 1 1 2 2 2 1 -0 -1 -1 -1 0 0 -1 -0 -0 0 -2
0 -0 0 -0 0 0 -1 0 1 1 1 0 -0 -1 -0 -1 -1 -1 1 1 2 1 3 1 1 -1 2 1 3 3 2 0 1 0 1 1 1 2 1 0 0 1 1 1 0 -0 0 -1 -1 0 -1 -1 -0 -0
-0 -1 0 -0 -1 0 0 0 0 0 0 0 0 0 0 0 -0 -2 -0 2 2 -0 -2 1 2 1 -1 0 0 3 2 1 0 1 2 2 4 2 4 3 -1 -1 0 -1 -1 1 -1 1 0 -0 -0 -1 -1 -1
Height
1523 1516 1510 1504 1498 1490 1484 1477 1470 1463 1455 1447 1440 1432 1424 1418 1414 1413 1411 1409 1413 1413 1405 1410 1409 1411 1410 1409 1407 1404 1403 1389 1387 1382 1372 1365 1356 1363 1361 1343 1341 1340 1349 1348 1353 1346 1340 1324 1333 1333 1325 1324 1327 1328
1520 1513 1507 1501 1494 1488 1481 1472 1466 1459 1452 1445 1438 1431 1424 1418 1413 1410 1407 1408 1410 1410 1401 1400 1400 1400 1401 1402 1404 1402 1402 1398 1395 1390 1386 1384 1376 1371 1362 1356 1352 1339 1334 1333 1333 1324 1317 1320 1320 1322 1325 1330 1329 1329
1515 1508 1502 1495 1490 1483 1477 1472 1464 1457 1448 1440 1433 1428 1423 1417 1411 1407 1402 1403 1404 1403 1399 1394 1388 1389 1390 1390 1394 1398 1394 1393 1391 1391 1388 1384 1374 1368 1363 1352 1347 1351 1347 1346 1348 1323 1318 1320 1321 1322 1321 1326 1327 1330
1510 1505 1498 1493 1486 1479 1472 1465 1459 1453 1445 1438 1429 1423 1418 1414 1409 1405 1399 1389 1398 1400 1397 1383 1384 1383 1382 1383 1383 1382 1382 1386 1388 1388 1386 1380 1373 1365 1355 1354 1350 1346 1344 1339 1333 1328 1324 1322 1321 1318 1319 1324 1327 1327
1504 1499 1494 1490 1483 1475 1468 1460 1453 1446 1439 1431 1425 1418 1413 1410 1406 1402 1397 1393 1394 1394 1391 1385 1379 1375 1372 1374 1374 1377 1379 1379 1382 1382 1378 1372 1367 1366 1356 1351 1337 1343 1338 1338 1325 1327 1327 1325 1322 1318 1318 1319 1323 1328
1504 1497 1491 1483 1478 1470 1462 1455 1447 1441 1432 1425 1419 1412 1408 1405 1402 1401 1398 1395 1393 1394 1394 1387 1375 1366 1366 1366 1366 1367 1370 1372 1374 1372 1368 1364 1359 1361 1354 1342 1350 1351 1347 1348 1342 1337 1333 1326 1323 1321 1316 1316 1320 1322
1501 1493 1488 1482 1474 1466 1458 1450 1441 1434 1426 1416 1409 1403 1399 1398 1399 1400 1400 1398 1397 1396 1395 1388 1371 1364 1361 1360 1360 1360 1362 1363 1365 1362 1356 1355 1353 1354 1347 1341 1360 1353 1349 1343 1342 1336 1327 1324 1325 1322 1317 1317 1320 1325
1497 1493 1487 1481 1472 1463 1455 1447 1437 1427 1417 1407 1398 1393 1391 1392 1393 1394 1393 1394 1395 1396 1395 1386 1372 1365 1362 1361 1360 1358 1356 1355 1351 1347 1347 1346 1346 1347 1345 1369 1365 1357 1350 1341 1339 1337 1335 1326 1326 1323 1317 1314 1320 1331
1493 1487 1482 1476 1470 1461 1451 1443 1433 1422 1412 1402 1396 1393 1392 1393 1393 1393 1392 1391 1391 1395 1389 1381 1372 1365 1364 1361 1359 1354 1350 1342 1339 1336 1336 1339 1364 1375 1377 1371 1363 1356 1351 1344 1337 1335 1332 1328 1330 1327 1326 1316 1315 1332
1490 1485 1478 1471 1464 1458 1449 1440 1430 1418 1410 1402 1396 1396 1397 1397 1392 1389 1389 1388 1387 1384 1385 1379 1377 1370 1371 1366 1357 1353 1345 1338 1329 1341 1346 1360 1378 1386 1380 1372 1364 1357 1352 1346 1339 1334 1330 1330 1330 1329 1330 1331 1323 1334
1485 1480 1474 1467 1460 1453 1445 1437 1428 1416 1409 1403 1401 1401 1399 1395 1392 1391 1390 1389 1387 1383 1385 1383 1380 1378 1373 1369 1360 1354 1345 1342 1336 1352 1356 1372 1380 1384 1379 1371 1366 1360 1353 1345 1340 1334 1331 1331 1331 1332 1334 1340 1340 1341
1481 1476 1469 1462 1456 1451 1443 1435 1428 1419 1414 1410 1406 1402 1400 1399 1396 1397 1397 1397 1396 1393 1391 1388 1387 1384 1374 1368 1361 1355 1352 1350 1356 1368 1374 1385 1392 1389 1383 1375 1370 1362 1355 1347 1341 1340 1339 1339 1337 1337 1338 1344 1349 1352
1478 1471 1465 1459 1453 1447 1440 1433 1426 1420 1413 1409 1408 1406 1406 1407 1406 1409 1409 1404 1404 1402 1396 1395 1393 1387 1376 1367 1363 1360 1359 1364 1371 1379 1392 1402 1402 1395 1388 1380 1373 1364 1358 1354 1351 1349 1347 1345 1345 1346 1349 1356 1359 1362
1477 1470 1463 1456 1451 1444 1437 1430 1425 1419 1414 1412 1410 1411 1413 1413 1416 1417 1417 1416 1413 1406 1402 1399 1392 1386 1374 1370 1372 1367 1379 1380 1387 1396 1405 1408 1406 1400 1393 1386 1377 1373 1368 1363 1361 1362 1359 1358 1359 1360 1362 1366 1369 1372
1472 1467 1461 1454 1447 1441 1434 1427 1423 1418 1416 1415 1415 1417 1418 1420 1420 1420 1418 1414 1411 1407 1403 1397 1391 1388 1382 1382 1386 1384 1388 1401 1410 1415 1415 1414 1410 1404 1398 1391 1386 1382 1378 1375 1374 1372 1370 1369 1369 1369 1374 1377 1379 1380
1469 1463 1458 1450 1444 1437 1430 1424 1420 1417 1416 1417 1418 1418 1419 1417 1418 1418 1415 1412 1408 1403 1399 1399 1392 1386 1393 1397 1398 1406 1403 1418 1422 1423 1420 1416 1412 1408 1403 1399 1394 1390 1388 1386 1384 1382 1382 1381 1381 1383 1384 1384 1384 1386
1464 1460 1455 1447 1439 1433 1427 1423 1421 1418 1415 1419 1422 1422 1422 1422 1421 1419 1416 1412 1407 1404 1399 1397 1400 1406 1404 1406 1416 1422 1425 1428 1427 1424 1421 1418 1415 1412 1409 1405 1401 1397 1396 1394 1393 1391 1390 1389 1389 1388 1388 1390 1391 1392
1459 1455 1451 1444 1437 1430 1425 1422 1420 1419 1419 1421 1422 1424 1422 1423 1422 1420 1417 1412 1408 1407 1406 1409 1411 1415 1420 1421 1427 1434 1432 1431 1428 1426 1423 1420 1418 1415 1412 1409 1407 1405 1403 1401 1399 1397 1396 1396 1395 1395 1395 1395 1396 1397
1458 1452 1448 1441 1434 1430 1426 1423 1424 1425 1427 1426 1425 1424 1423 1424 1424 1422 1418 1414 1412 1410 1412 1416 1422 1429 1434 1437 1437 1436 1434 1431 1428 1426 1424 1421 1419 1416 1414 1413 1411 1409 1407 1404 1403 1402 1402 1401 1400 1400 1400 1400 1400 1400
1455 1450 1445 1439 1433 1431 1430 1430 1430 1430 1430 1430 1428 1426 1425 1426 1425 1423 1420 1416 1414 1415 1423 1431 1439 1441 1441 1440 1438 1436 1433 1430 1428 1426 1425 1422 1420 1418 1416 1415 1413 1411 1409 1408 1407 1406 1406 1405 1405 1404 1404 1403 1403 1403
1451 1447 1441 1438 1435 1433 1433 1435 1435 1435 1434 1432 1430 1428 1428 1427 1427 1424 1422 1420 1420 1433 1440 1443 1443 1442 1441 1439 1437 1435 1433 1431 1429 1428 1426 1424 1422 1421 1419 1417 1416 1414 1412 1411 1410 1409 1408 1408 1408 1408 1407 1406 1405 1405
1449 1445 1441 1439 1437 1436 1438 1439 1439 1438 1436 1434 1432 1431 1431 1433 1433 1431 1429 1429 1440 1446 1446 1445 1444 1442 1441 1440 1438 1436 1434 1432 1430 1429 1427 1425 1423 1422 1420 1419 1418 1416 1415 1414 1414 1413 1412 1411 1410 1409 1408 1407 1407 1406
1447 1445 1444 1441 1440 1440 1447 1442 1441 1441 1439 1438 1435 1436 1438 1439 1439 1436 1439 1444 1448 1448 1447 1445 1444 1443 1442 1441 1439 1437 1435 1433 1431 1429 1427 1426 1424 1423 1421 1420 1419 1418 1417 1415 1414 1414 1413 1413 1412 1410 1409 1409 1409 1408
1448 1448 1446 1446 1448 1450 1449 1447 1447 1446 1444 1444 1445 1444 1444 1444 1442 1441 1446 1450 1451 1449 1447 1446 1444 1443 1442 1441 1439 1437 1435 1433 1432 1430 1428 1426 1425 1424 1423 1421 1420 1419 1418 1417 1416 1415 1414 1413 1412 1412 1410 1409 1408 1407
1453 1459 1458 1457 1458 1457 1457 1455 1456 1454 1453 1454 1453 1450 1449 1448 1446 1449 1451 1452 1451 1449 1448 1446 1444 1443 1442 1441 1439 1437 1435 1433 1432 1430 1429 1427 1425 1424 1423 1422 1421 1420 1419 1418 1417 1416 1414 1413 1412 1411 1409 1408 1407 1406
1462 1466 1465 1466 1466 1464 1464 1462 1463 1463 1461 1460 1458 1456 1454 1453 1451 1455 1455 1454 1452 1450 1448 1446 1444 1443 1442 1440 1437 1436 1434 1432 1430 1429 1427 1426 1425 1423 1422 1421 1421 1420 1418 1417 1416 1415 1414 1413 1411 1410 1409 1408 1407 1405
1468 1469 1468 1468 1468 1468 1467 1466 1466 1465 1464 1465 1462 1460 1458 1457 1456 1457 1455 1454 1452 1450 1448 1446 1444 1442 1440 1438 1436 1434 1432 1430 1428 1426 1425 1423 1422 1421 1421 1420 1419 1419 1417 1416 1416 1414 1413 1412 1410 1409 1408 1406 1405 1403
1469 1469 1471 1469 1468 1468 1467 1466 1466 1466 1465 1465 1465 1462 1461 1460 1460 1459 1457 1455 1452 1450 1448 1445 1443 1441 1438 1436 1433 1431 1429 1427 1425 1423 1421 1420 1419 1418 1417 1417 1416 1416 1415 1414 1413 1412 1411 1410 1408 1406 1404 1403 1401 1399
1470 1469 1469 1468 1467 1466 1465 1465 1465 1465 1465 1464 1463 1460 1460 1460 1460 1458 1456 1454 1452 1449 1447 1444 1442 1439 1437 1434 1431 1429 1427 1425 1422 1420 1418 1417 1416 1415 1414 1413 1412 1412 1411 1410 1410 1409 1408 1407 1406 1403 1400 1399 1397 1396
1469 1468 1468 1467 1467 1464 1464 1464 1464 1463 1462 1462 1461 1460 1459 1459 1459 1458 1456 1454 1452 1450 1447 1444 1441 1438 1435 1432 1429 1428 1426 1422 1420 1418 1416 1414 1413 1412 1410 1409 1408 1407 1406 1405 1404 1404 1403 1402 1401 1400 1398 1396 1394 1392
1468 1468 1467 1466 1464 1463 1462 1462 1461 1460 1460 1459 1460 1460 1460 1459 1459 1458 1456 1454 1452 1449 1446 1443 1440 1437 1434 1431 1427 1424 1421 1420 1417 1415 1413 1410 1409 1407 1406 1404 1403 1402 1402 1401 1400 1400 1399 1398 1397 1395 1394 1392 1391 1389
1468 1468 1468 1465 1463 1462 1461 1460 1460 1459 1459 1459 1460 1460 1460 1459 1458 1458 1456 1454 1451 1448 1445 1440 1437 1434 1432 1428 1425 1421 1418 1415 1412 1410 1408 1406 1404 1403 1401 1400 1399 1398 1397 1396 1395 1394 1393 1392 1392 1391 1390 1389 1388 1386
1467 1466 1465 1464 1462 1461 1462 1461 1460 1459 1459 1459 1459 1459 1458 1459 1460 1460 1456 1453 1450 1446 1441 1438 1436 1432 1427 1423 1419 1416 1413 1410 1407 1404 1402 1400 1398 1397 1396 1394 1391 1390 1390 1388 1388 1387 1386 1386 1386 1386 1385 1384 1383 1382